Weather History for KFYV - October, 2011

Change the Weather History Date:

Friday, October 21, 2011

  Actual Average Record
Temperature  
Mean Temperature 50 °F 56 °F  
Max Temperature 70 °F 69 °F 85 °F (1978)
Min Temperature 30 °F 44 °F 27 °F (1952)
Degree Days  
Heating Degree Days 15 9  
Month to date heating degree days 143  
Since 1 July heating degree days 195  
Cooling Degree Days 0 0  
Month to date cooling degree days 18  
Year to date cooling degree days 1301  
Moisture  
Dew Point 35 °F    
Average Humidity 69    
Maximum Humidity 100    
Minimum Humidity 29    
Precipitation  
Precipitation 0.00 in 0.15 in - ()
Month to date precipitation 2.96  
Year to date precipitation 39.67  
Sea Level Pressure  
Sea Level Pressure 30.17 in    
Wind  
Wind Speed 1 mph (SW)    
Max Wind Speed 9 mph    
Max Gust Speed -    
Visibility 10 miles    
Events      
T = Trace of Precipitation, MM = Missing Value Source: NWS Daily Summary

Daily Weather History Graph

Daily Weather History Graph

Search for Another Location

Airport or City:

Trip Planner

Search our weather history database for the weather conditions in past years. The results will help you decide how hot, cold, wet, or windy it might be!

Date:

Astronomy

Oct. 21, 2011 Rise Set
Actual Time 7:28 AM CDT 6:33 PM CDT
Civil Twilight 7:02 AM CDT 6:59 PM CDT
Nautical Twilight 6:32 AM CDT 7:29 PM CDT
Astronomical Twilight 6:02 AM CDT 7:59 PM CDT
Moon 1:30 AM CDT (10/21) 3:08 PM CDT (10/21)
Length of Visible Light 11h 56m
Length of Day
11h 04m
Waning Crescent, 33% of the Moon is Illuminated
Oct 21
Waning Crescent
Oct 26
New
Nov 2
First Quarter
Nov 10
Full
Nov 18
Last Quarter

Hourly Weather History & Observations

Time (CDT) Temp. Windchill Dew Point Humidity Pressure Visibility Wind Dir Wind Speed Gust Speed Precip Events Conditions
12:53 AM 34.0 °F - 32.0 °F 92% 30.17 in 10.0 mi Calm Calm - N/A   Clear
1:53 AM 33.1 °F - 32.0 °F 96% 30.17 in 10.0 mi Calm Calm - N/A   Clear
2:53 AM 32.0 °F - 30.9 °F 96% 30.17 in 10.0 mi Calm Calm - N/A   Clear
3:53 AM 32.0 °F - 30.9 °F 96% 30.17 in 10.0 mi Calm Calm - N/A   Clear
4:53 AM 30.9 °F - 30.0 °F 96% 30.18 in 10.0 mi Calm Calm - N/A   Clear
5:53 AM 30.0 °F - 30.0 °F 100% 30.19 in 10.0 mi Calm Calm - N/A   Clear
6:53 AM 30.2 °F - 28.4 °F 93% 30.19 in 10.0 mi Calm Calm - N/A   Clear
7:53 AM 30.0 °F - 30.0 °F 100% 30.22 in 10.0 mi Calm Calm - N/A   Clear
8:53 AM 36.0 °F - 34.0 °F 93% 30.24 in 10.0 mi Calm Calm - N/A   Clear
9:53 AM 44.6 °F - 37.4 °F 76% 30.23 in 10.0 mi Calm Calm - N/A   Clear
10:53 AM 55.9 °F - 37.9 °F 51% 30.24 in 10.0 mi Calm Calm - N/A   Clear
11:53 AM 64.0 °F - 34.0 °F 33% 30.22 in 10.0 mi WSW 6.9 mph - N/A   Clear
12:53 PM 66.9 °F - 36.0 °F 32% 30.19 in 10.0 mi WSW 9.2 mph - N/A   Clear
1:53 PM 68.0 °F - 35.1 °F 30% 30.16 in 10.0 mi Variable 3.5 mph - N/A   Clear
2:53 PM 69.1 °F - 36.0 °F 30% 30.14 in 10.0 mi Variable 5.8 mph - N/A   Clear
3:53 PM 70.0 °F - 37.9 °F 31% 30.13 in 10.0 mi SW 9.2 mph - N/A   Clear
4:53 PM 70.0 °F - 36.0 °F 29% 30.13 in 10.0 mi Calm Calm - N/A   Clear
5:53 PM 66.9 °F - 37.9 °F 34% 30.13 in 10.0 mi WSW 3.5 mph - N/A   Clear
6:53 PM 55.9 °F - 42.1 °F 60% 30.14 in 10.0 mi Calm Calm - N/A   Clear
7:53 PM 50.0 °F - 41.0 °F 71% 30.16 in 10.0 mi Calm Calm - N/A   Clear
8:53 PM 48.9 °F - 41.0 °F 74% 30.15 in 10.0 mi Calm Calm - N/A   Clear
9:53 PM 48.0 °F - 41.0 °F 77% 30.15 in 10.0 mi Calm Calm - N/A   Clear
10:53 PM 45.0 °F 42.6 °F 39.9 °F 82% 30.14 in 10.0 mi SSW 4.6 mph - N/A   Clear
11:53 PM 43.0 °F - 39.0 °F 86% 30.14 in 10.0 mi Calm Calm - N/A   Clear